Private Wetterstation Sandau
Wetterdaten: Dienstag, 24.07.2012
Datum Zeit Temp. A. Feuchte A. Luftdruck Regen Wind Richtung Richtung Taupunkt Windchill
24.07.2012 00:01 17,3 C 61 % 1026,0 hPa 0,0 l/m 1,1 km/h (1 Bft) O-SO 112 9,7 C 17,3 C
24.07.2012 00:06 17,1 C 62 % 1025,9 hPa 0,0 l/m 1,4 km/h (1 Bft) O-SO 112 9,8 C 17,1 C
24.07.2012 00:11 16,9 C 63 % 1025,9 hPa 0,0 l/m 0,0 km/h (0 Bft) O-SO 112 9,8 C 16,9 C
24.07.2012 00:16 16,9 C 63 % 1025,7 hPa 0,0 l/m 0,0 km/h (0 Bft) O-SO 112 9,8 C 16,9 C
24.07.2012 00:21 16,8 C 64 % 1025,9 hPa 0,0 l/m 0,0 km/h (0 Bft) O-SO 112 10,0 C 16,8 C
24.07.2012 00:26 16,6 C 64 % 1026,0 hPa 0,0 l/m 0,0 km/h (0 Bft) O-SO 112 9,8 C 16,6 C
24.07.2012 00:31 16,5 C 64 % 1025,9 hPa 0,0 l/m 0,0 km/h (0 Bft) O-SO 112 9,7 C 16,5 C
24.07.2012 00:36 16,4 C 64 % 1026,0 hPa 0,0 l/m 0,0 km/h (0 Bft) O-SO 112 9,6 C 16,4 C
24.07.2012 00:41 16,3 C 64 % 1026,1 hPa 0,0 l/m 0,0 km/h (0 Bft) O-SO 112 9,5 C 16,3 C
24.07.2012 00:46 16,3 C 65 % 1025,8 hPa 0,0 l/m 0,0 km/h (0 Bft) O-SO 112 9,7 C 16,3 C
24.07.2012 00:51 16,1 C 65 % 1025,7 hPa 0,0 l/m 0,0 km/h (0 Bft) O-SO 112 9,5 C 16,1 C
24.07.2012 00:56 16,1 C 66 % 1025,7 hPa 0,0 l/m 0,0 km/h (0 Bft) O-SO 112 9,7 C 16,1 C
24.07.2012 01:01 16,1 C 66 % 1025,8 hPa 0,0 l/m 2,5 km/h (1 Bft) O-SO 112 9,7 C 16,1 C
24.07.2012 01:06 16,1 C 67 % 1025,8 hPa 0,0 l/m 0,0 km/h (0 Bft) O-SO 112 10,0 C 16,1 C
24.07.2012 01:11 16,1 C 67 % 1025,8 hPa 0,0 l/m 0,0 km/h (0 Bft) O-SO 112 10,0 C 16,1 C
24.07.2012 01:16 16,0 C 67 % 1025,7 hPa 0,0 l/m 2,5 km/h (1 Bft) O-SO 112 9,9 C 16,0 C
24.07.2012 01:21 15,9 C 68 % 1025,8 hPa 0,0 l/m 3,2 km/h (1 Bft) O-SO 112 10,0 C 15,9 C
24.07.2012 01:26 15,9 C 68 % 1025,6 hPa 0,0 l/m 0,0 km/h (0 Bft) O-SO 112 10,0 C 15,9 C
24.07.2012 01:31 15,8 C 68 % 1025,7 hPa 0,0 l/m 0,0 km/h (0 Bft) O-SO 112 9,9 C 15,8 C
24.07.2012 01:36 15,8 C 69 % 1025,5 hPa 0,0 l/m 3,2 km/h (1 Bft) O-SO 112 10,1 C 15,8 C
24.07.2012 01:41 15,7 C 69 % 1025,6 hPa 0,0 l/m 1,4 km/h (1 Bft) O-SO 112 10,0 C 15,7 C
24.07.2012 01:46 15,6 C 69 % 1025,6 hPa 0,0 l/m 0,0 km/h (0 Bft) O-SO 112 9,9 C 15,6 C
24.07.2012 01:51 15,6 C 70 % 1025,6 hPa 0,0 l/m 0,0 km/h (0 Bft) O-SO 112 10,1 C 15,6 C
24.07.2012 01:56 15,5 C 70 % 1025,6 hPa 0,0 l/m 2,2 km/h (1 Bft) O-SO 112 10,1 C 15,5 C
24.07.2012 02:01 15,4 C 70 % 1025,6 hPa 0,0 l/m 4,3 km/h (1 Bft) O-SO 112 10,0 C 15,4 C
24.07.2012 02:06 15,3 C 70 % 1025,5 hPa 0,0 l/m 2,9 km/h (1 Bft) O-SO 112 9,9 C 15,3 C
24.07.2012 02:11 15,3 C 71 % 1025,5 hPa 0,0 l/m 0,0 km/h (0 Bft) O-SO 112 10,1 C 15,3 C
24.07.2012 02:16 15,2 C 71 % 1025,3 hPa 0,0 l/m 0,0 km/h (0 Bft) O-SO 112 10,0 C 15,2 C
24.07.2012 02:21 15,1 C 71 % 1025,4 hPa 0,0 l/m 1,4 km/h (1 Bft) O-SO 112 9,9 C 15,1 C
24.07.2012 02:26 15,0 C 71 % 1025,4 hPa 0,0 l/m 0,0 km/h (0 Bft) O-SO 112 9,8 C 15,0 C
24.07.2012 02:31 14,9 C 72 % 1025,4 hPa 0,0 l/m 0,0 km/h (0 Bft) O-SO 112 9,9 C 14,9 C
24.07.2012 02:36 14,9 C 72 % 1025,4 hPa 0,0 l/m 2,2 km/h (1 Bft) O-SO 112 9,9 C 14,9 C
24.07.2012 02:41 14,9 C 72 % 1025,4 hPa 0,0 l/m 2,5 km/h (1 Bft) O-SO 112 9,9 C 14,9 C
24.07.2012 02:46 14,9 C 73 % 1025,6 hPa 0,0 l/m 2,5 km/h (1 Bft) O-SO 112 10,1 C 14,9 C
24.07.2012 02:51 14,9 C 73 % 1025,5 hPa 0,0 l/m 2,2 km/h (1 Bft) O-SO 112 10,1 C 14,9 C
24.07.2012 02:56 14,9 C 73 % 1025,6 hPa 0,0 l/m 1,8 km/h (1 Bft) O-SO 112 10,1 C 14,9 C
24.07.2012 03:01 14,8 C 73 % 1025,6 hPa 0,0 l/m 5,0 km/h (1 Bft) O-SO 112 10,0 C 14,8 C
24.07.2012 03:06 14,8 C 73 % 1025,5 hPa 0,0 l/m 2,9 km/h (1 Bft) O-SO 112 10,0 C 14,8 C
24.07.2012 03:11 14,8 C 73 % 1025,5 hPa 0,0 l/m 3,2 km/h (1 Bft) O-SO 112 10,0 C 14,8 C
24.07.2012 03:16 14,7 C 73 % 1025,3 hPa 0,0 l/m 1,1 km/h (1 Bft) O-SO 112 9,9 C 14,7 C
24.07.2012 03:21 14,6 C 73 % 1025,3 hPa 0,0 l/m 2,2 km/h (1 Bft) O-SO 112 9,8 C 14,6 C
_ Min-Zeit 03:21 00:01 02:16 - 00:11 - - 00:41 03:21
Minimum _ 14,6 C 61 % 1025,3 hPa - 0,0 km/h (0 Bft) - - 9,5 C 14,6 C
_ Max-Zeit 00:01 02:46 00:41 00:01 03:01 - - 01:51 00:01
Maximum _ 17,3 C 73 % 1026,1 hPa 0,0 l/m 5,0 km/h
O-SO (1 Bft)
- - 10,1 C 17,3 C
Durchschnitt _ 15,7 C 69 % 1025,6 hPa #0,0 l/m 1,3 km/h (1 Bft) O-SO - 9,9 C 15,7 C
(c) by David Heller